[[{"header":{"parameterUnit":"m.s-1","parameterCategory":1,"la1":30.2991,"la2":30.254,"lo1":-89.0895,"lo2":-89.0444,"dy":0.0017,"dx":0.0017,"nx":28,"ny":28,"refTime":"2023-03-17T21:00:00:Z","depth":0,"parameterNumber":2,"parameterNumberName":"U-component_of_WINDS"},"data":[0,0,0,0,0,0,0,0,0,0,0,0,0,0,0,0,0,0,0,0,0,0,0,0,0,0,0,0,0,0,0,0,0,0,0,0,0,0,0,0,0,0,0,0,0,0,0,0,0,0,0,0,0,0,0,0,0,0,-1.6897,-1.6899,0,-1.7072,-1.7074,-1.7076,-1.7075,-1.7072,-1.707,-1.7068,-1.7247,-1.7254,-1.7261,0,0,0,0,0,0,0,0,0,0,0,0,0,-1.656,-1.6566,-1.6896,-1.6899,-1.6901,-1.7072,-1.7074,-1.7076,-1.7075,-1.7072,-1.707,-1.7067,-1.7245,-1.7253,-1.7261,0,0,0,0,0,0,0,0,0,0,0,0,0,-1.6718,-1.6568,-1.6896,-1.6921,-1.6925,-1.7071,-1.7074,-1.7077,-1.7076,-1.7072,-1.7069,-1.7066,-1.7242,-1.7252,-1.7262,-1.7396,0,0,-1.7294,-1.7299,0,0,0,0,0,0,0,0,-1.6709,-1.673,-1.6915,-1.6919,-1.6924,-1.7048,-1.7021,-1.7184,-1.7077,-1.7018,-1.7068,-1.7064,-1.7184,-1.7199,-1.7239,-1.7404,-1.7412,-1.7295,-1.7301,-1.7306,-1.7309,0,0,0,0,0,0,0,-1.6698,-1.6722,-1.6966,-1.6918,-1.6923,-1.6923,-1.6942,-1.7052,-1.7118,-1.7023,-1.7024,-1.7044,-1.7185,-1.7229,-1.7243,-1.7414,-1.7295,-1.7304,-1.731,-1.7314,-1.7697,-1.7701,0,0,0,0,0,0,-1.6682,-1.6713,-1.696,-1.6971,-1.6806,-1.6932,-1.6953,-1.7012,-1.7117,-1.713,-1.7047,-1.7044,-1.7213,-1.7231,-1.7249,-1.7413,-1.7306,-1.7315,-1.7321,-1.7693,-1.7698,-1.7702,0,0,0,0,0,0,-1.6675,-1.6704,-1.6953,-1.6842,-1.6874,-1.6941,-1.7008,-1.7017,-1.7061,-1.7135,-1.7147,-1.708,-1.7211,-1.7235,-1.7359,-1.7419,-1.732,-1.7329,-1.7689,-1.7695,-1.77,-1.7741,0,0,0,0,0,0,-1.6665,-1.6701,-1.6753,-1.6844,-1.688,-1.7061,-1.7011,-1.7023,-1.7079,-1.7076,-1.7169,-1.7181,-1.721,-1.7344,-1.737,-1.7432,-1.7338,-1.7684,-1.7691,-1.7698,-1.7735,-1.7748,-1.7759,0,0,0,0,0,-1.6653,-1.6757,-1.6756,-1.6785,-1.6946,-1.7064,-1.7085,-1.7117,-1.7083,-1.7136,-1.7183,-1.7178,-1.7408,-1.7357,-1.7386,-1.7452,-1.768,-1.7689,-1.7698,-1.7729,-1.7745,-1.7759,0,0,0,0,0,0,-1.6672,-1.677,-1.6769,-1.6906,-1.6977,-1.7064,-1.7131,-1.7132,-1.7214,-1.7208,-1.7244,-1.7265,-1.7389,-1.7432,-1.7374,-1.7586,-1.754,-1.7555,-1.7554,-1.757,-1.7581,-1.7569,-1.7346,0,0,0,0,0,-1.6692,-1.678,-1.686,-1.6973,-1.7009,-1.7064,-1.7116,-1.7135,-1.721,-1.724,-1.7296,-1.7369,-1.7458,-1.7516,-1.7601,-1.774,-1.7761,-1.78,-1.7812,-1.7821,-1.7835,-1.7912,-1.793,-1.7732,-1.7731,-1.7731,0,0,-1.6735,-1.6799,-1.6852,-1.6979,-1.7036,-1.7127,-1.7089,-1.7186,-1.7254,-1.7254,-1.7376,-1.742,-1.7503,-1.7635,-1.7696,-1.7675,-1.7893,-1.7832,-1.7839,-1.7848,-1.7923,-1.7941,-1.7958,-1.7738,-1.7737,-1.7736,0,0,-1.6859,-1.6916,-1.7017,-1.7075,-1.7162,-1.7197,-1.7221,-1.7308,-1.7338,-1.746,-1.7462,-1.7542,-1.7694,-1.7754,-1.7804,-1.7949,-1.7947,-1.7976,-1.804,-1.8114,-1.813,-1.8144,-1.8197,-1.8216,-1.7988,-1.7988,-1.7989,0,-1.6902,-1.7038,-1.7068,-1.7167,-1.7222,-1.7226,-1.7329,-1.7383,-1.7493,-1.7532,-1.7506,-1.7697,-1.7753,-1.79,-1.7935,-1.7975,-1.8004,-1.7967,-1.8125,-1.814,-1.8153,-1.8204,-1.8224,-1.7991,-1.7991,-1.7991,-1.7991,0,-1.7086,-1.7181,-1.7252,-1.7359,-1.7422,-1.7521,-1.7567,-1.7627,-1.7639,-1.7677,-1.7801,-1.7868,-1.7968,-1.8004,-1.8016,-1.8152,-1.8137,-1.8118,-1.8072,-1.8175,-1.8223,-1.8243,-1.7996,-1.7995,-1.7994,-1.7993,0,0,-1.723,-1.7351,-1.7377,-1.7426,-1.7521,-1.7595,-1.7694,-1.7792,-1.7843,-1.7918,-1.8003,-1.813,-1.8114,-1.817,-1.8189,-1.8254,-1.8367,-1.8228,-1.823,-1.8253,-1.8521,-1.8536,-1.8559,-1.8365,-1.8368,-1.8371,-1.8515,0,-1.7366,-1.7543,-1.7573,-1.7728,-1.7816,-1.782,-1.7907,-1.7975,-1.8012,-1.8092,-1.8133,-1.8224,-1.8194,-1.8228,-1.8293,-1.8339,-1.8421,-1.8329,-1.8444,-1.8448,-1.8426,-1.8584,-1.86,-1.8733,-1.8534,-1.8537,-1.8539,0,-1.7549,-1.7629,-1.7794,-1.7877,-1.7915,-1.7993,-1.8084,-1.816,-1.8236,-1.8259,-1.8322,-1.8333,-1.8436,-1.8384,-1.8526,-1.8462,-1.8511,-1.8541,-1.8546,-1.856,-1.8502,-1.8604,-1.8775,-1.8796,-1.8569,-1.8567,-1.8565,0,-1.7639,-1.7788,-1.7906,-1.7947,-1.8047,-1.8102,-1.8146,-1.8219,-1.8275,-1.8355,-1.8392,-1.8482,-1.8532,-1.8601,-1.8636,-1.8594,-1.8776,-1.8726,-1.8798,-1.8797,-1.8838,-1.8836,-1.9022,-1.8866,-1.8866,-1.8865,-1.8865,0,-1.779,-1.789,-1.7948,-1.8021,-1.8134,-1.8166,-1.8276,-1.8319,-1.8384,-1.8464,-1.8472,-1.8548,-1.8588,-1.8669,-1.8697,-1.8811,-1.8833,-1.8854,-1.8861,-1.8855,-1.8852,-1.8889,-1.8881,-1.887,-1.8869,-1.8868,-1.8867,0,-1.7911,-1.7954,-1.8082,-1.8166,-1.8189,-1.8269,-1.834,-1.8411,-1.8447,-1.8549,-1.8575,-1.8632,-1.8728,-1.8769,-1.8887,-1.8905,-1.9036,-1.9035,-1.9011,-1.9014,-1.9083,-1.9077,-1.9302,-1.9333,-1.9154,-1.9156,-1.9157,0,-1.8005,-1.8083,-1.8174,-1.8229,-1.8275,-1.8363,-1.8421,-1.8455,-1.8514,-1.8607,-1.8666,-1.8762,-1.8841,-1.8994,-1.9046,-1.9136,-1.9138,-1.921,-1.9152,-1.9143,-1.9141,-1.9137,-1.9145,-1.9222,-1.9223,-1.9225,-1.9226,0,-1.8168,-1.8185,-1.8268,-1.8359,-1.8428,-1.8501,-1.8572,-1.8616,-1.8661,-1.8727,-1.8826,-1.8887,-1.9007,-1.9102,-1.9195,-1.924,-1.9241,-1.9244,-1.9265,-1.9261,-1.9245,-1.9256,-1.9042,-1.9239,-1.9238,-1.9237,-1.9236,-1.9236,-1.828,-1.8349,-1.8425,-1.8517,-1.8574,-1.864,-1.8711,-1.8756,-1.8838,-1.8939,-1.8954,-1.9059,-1.9132,-1.9257,-1.9305,-1.9388,-1.937,-1.9401,-1.9409,-1.9417,-1.9422,-1.923,-1.9404,-1.9404,-1.9404,-1.9404,-1.9403,0,-1.8445,-1.8493,-1.8578,-1.8677,-1.875,-1.8743,-1.8821,-1.8883,-1.8975,-1.9044,-1.9121,-1.9234,-1.9326,-1.9384,-1.9477,-1.9532,-1.9535,-1.9555,-1.9553,-1.9563,-1.9432,-1.9405,-1.9552,-1.9552,-1.9552,-1.9552,-1.9551,-1.9551,-1.8539,-1.8656,-1.8682,-1.8827,-1.8875,-1.8979,-1.9024,-1.9085,-1.914,-1.9266,-1.9342,-1.938,-1.9444,-1.9542,-1.9626,-1.964,-1.9675,-1.9697,-1.9711,-1.9588,-1.9572,-1.9558,-1.9532,-1.9704,-1.9704,-1.9835,-1.9836,-1.9837]},{"header":{"parameterUnit":"m.s-1","parameterCategory":1,"la1":30.2991,"la2":30.254,"lo1":-89.0895,"lo2":-89.0444,"dy":0.0017,"dx":0.0017,"nx":28,"ny":28,"refTime":"2023-03-17T21:00:00:Z","depth":0,"parameterNumber":3,"parameterNumberName":"V-component_of_WINDS"},"data":[0,0,0,0,0,0,0,0,0,0,0,0,0,0,0,0,0,0,0,0,0,0,0,0,0,0,0,0,0,0,0,0,0,0,0,0,0,0,0,0,0,0,0,0,0,0,0,0,0,0,0,0,0,0,0,0,0,0,-7.6564,-7.6566,0,-7.6719,-7.6721,-7.6722,-7.6621,-7.6616,-7.6612,-7.6607,-7.6762,-7.677,-7.6778,0,0,0,0,0,0,0,0,0,0,0,0,0,-7.6175,-7.6183,-7.6564,-7.6566,-7.6568,-7.6718,-7.6721,-7.6723,-7.6622,-7.6616,-7.6611,-7.6605,-7.6759,-7.6769,-7.6779,0,0,0,0,0,0,0,0,0,0,0,0,0,-7.6338,-7.6185,-7.6563,-7.6536,-7.6535,-7.6718,-7.6721,-7.6723,-7.6623,-7.6616,-7.6609,-7.6603,-7.6755,-7.6768,-7.678,-7.6998,0,0,-7.6819,-7.6824,0,0,0,0,0,0,0,0,-7.6329,-7.6353,-7.6538,-7.6538,-7.6537,-7.6644,-7.664,-7.6815,-7.6625,-7.6589,-7.6607,-7.6599,-7.6728,-7.6742,-7.6786,-7.7005,-7.7012,-7.682,-7.6828,-7.6833,-7.6837,0,0,0,0,0,0,0,-7.6318,-7.6345,-7.6625,-7.654,-7.654,-7.6514,-7.6529,-7.6673,-7.6696,-7.6592,-7.6585,-7.6605,-7.6726,-7.6774,-7.6789,-7.7014,-7.682,-7.6831,-7.6839,-7.6844,-7.7418,-7.7425,0,0,0,0,0,0,-7.631,-7.6337,-7.662,-7.6629,-7.6414,-7.6526,-7.6544,-7.6616,-7.6694,-7.6699,-7.6611,-7.66,-7.6756,-7.6775,-7.6794,-7.7054,-7.6833,-7.6845,-7.6852,-7.741,-7.742,-7.7428,0,0,0,0,0,0,-7.6302,-7.6336,-7.6614,-7.6481,-7.6515,-7.654,-7.6623,-7.6623,-7.6671,-7.6708,-7.6711,-7.6657,-7.6751,-7.6776,-7.6948,-7.7058,-7.6851,-7.6862,-7.7401,-7.7413,-7.7424,-7.7576,0,0,0,0,0,0,-7.6291,-7.6334,-7.6418,-7.6484,-7.6522,-7.6767,-7.663,-7.6631,-7.6694,-7.6681,-7.6752,-7.6757,-7.6748,-7.693,-7.6961,-7.7072,-7.6872,-7.7392,-7.7407,-7.742,-7.7561,-7.7591,-7.7616,0,0,0,0,0,-7.6277,-7.6454,-7.6423,-7.6458,-7.6629,-7.6774,-7.6795,-7.6783,-7.6703,-7.6788,-7.6811,-7.6754,-7.7041,-7.6948,-7.6982,-7.7099,-7.7385,-7.7402,-7.7419,-7.7548,-7.7585,-7.7616,0,0,0,0,0,0,-7.6399,-7.6462,-7.6429,-7.6632,-7.6699,-7.6757,-7.6863,-7.6822,-7.6912,-7.6896,-7.6875,-7.6891,-7.7071,-7.7101,-7.6998,-7.7312,-7.72,-7.7225,-7.7286,-7.7321,-7.7349,-7.7338,-7.6883,0,0,0,0,0,-7.645,-7.6565,-7.6612,-7.6787,-7.6823,-7.6837,-7.69,-7.6885,-7.6952,-7.6979,-7.7015,-7.7081,-7.7185,-7.7255,-7.7353,-7.7564,-7.7577,-7.7661,-7.7688,-7.7711,-7.7733,-7.7845,-7.7882,-7.7484,-7.7484,-7.7484,0,0,-7.6556,-7.6604,-7.6678,-7.6813,-7.6863,-7.698,-7.6862,-7.6991,-7.7077,-7.6998,-7.7163,-7.7192,-7.7263,-7.7456,-7.7542,-7.7487,-7.7845,-7.7733,-7.7751,-7.776,-7.7867,-7.7904,-7.7938,-7.7496,-7.7494,-7.7492,0,0,-7.6809,-7.6858,-7.7008,-7.706,-7.7137,-7.7146,-7.7182,-7.7246,-7.7263,-7.7428,-7.7371,-7.7472,-7.7653,-7.7706,-7.7757,-7.8029,-7.798,-7.8061,-7.8206,-7.8316,-7.8347,-7.8375,-7.8471,-7.8506,-7.8082,-7.8083,-7.8083,0,-7.693,-7.7106,-7.709,-7.7224,-7.7285,-7.722,-7.7371,-7.7422,-7.7527,-7.7569,-7.7506,-7.7731,-7.7775,-7.7978,-7.8044,-7.8088,-7.8127,-7.8053,-7.8344,-7.8372,-7.8398,-7.8489,-7.8525,-7.8092,-7.8091,-7.809,-7.8089,0,-7.7251,-7.7374,-7.7486,-7.7591,-7.7663,-7.7805,-7.7809,-7.7884,-7.7862,-7.7877,-7.8044,-7.8095,-7.8202,-7.8248,-7.8228,-7.8449,-7.8412,-7.8347,-7.8233,-7.8445,-7.8531,-7.8566,-7.8106,-7.8102,-7.8099,-7.8097,0,0,-7.7587,-7.768,-7.7721,-7.7767,-7.7847,-7.794,-7.8078,-7.8184,-7.8248,-7.8322,-7.8436,-7.859,-7.8531,-7.8588,-7.8572,-7.8669,-7.888,-7.8592,-7.8593,-7.8643,-7.9125,-7.9173,-7.9214,-7.8847,-7.8854,-7.8859,-7.9118,0,-7.7844,-7.8087,-7.8076,-7.8302,-7.8414,-7.8353,-7.8472,-7.8533,-7.855,-7.8646,-7.8663,-7.8773,-7.8686,-7.872,-7.8813,-7.8835,-7.8976,-7.8816,-7.8952,-7.8957,-7.8936,-7.9259,-7.9311,-7.9553,-7.9152,-7.9158,-7.9162,0,-7.8177,-7.8263,-7.8502,-7.8563,-7.861,-7.8718,-7.8813,-7.8906,-7.8973,-7.8978,-7.9042,-7.901,-7.9147,-7.903,-7.9218,-7.9109,-7.9163,-7.9182,-7.9191,-7.9204,-7.9072,-7.928,-7.9631,-7.9667,-7.9214,-7.921,-7.9206,0,-7.8398,-7.8573,-7.8738,-7.8779,-7.8855,-7.8932,-7.8967,-7.9027,-7.9091,-7.9173,-7.9214,-7.9311,-7.9364,-7.9439,-7.9433,-7.9348,-7.9623,-7.9506,-7.963,-7.963,-7.9691,-7.9688,-8.0056,-7.9727,-7.9726,-7.9725,-7.9725,0,-7.8686,-7.8834,-7.8838,-7.8939,-7.9102,-7.9087,-7.9248,-7.9274,-7.9328,-7.9432,-7.9384,-7.9482,-7.9468,-7.9566,-7.9562,-7.9717,-7.9741,-7.9748,-7.9745,-7.9753,-7.9752,-7.9789,-7.9771,-7.9735,-7.9733,-7.9731,-7.9729,0,-7.8961,-7.8969,-7.9145,-7.9202,-7.922,-7.9338,-7.9386,-7.9481,-7.9493,-7.9625,-7.9655,-7.9673,-7.9786,-7.9787,-7.9916,-7.9912,-8.0102,-8.008,-8.0081,-8.0077,-8.0201,-8.0189,-8.0605,-8.0659,-8.0295,-8.0299,-8.0302,0,-7.9145,-7.9257,-7.9327,-7.9394,-7.9434,-7.9542,-7.9607,-7.9595,-7.9664,-7.9748,-7.9832,-7.9941,-8.0027,-8.0209,-8.0233,-8.033,-8.031,-8.0449,-8.0324,-8.0328,-8.0311,-8.0305,-8.0315,-8.0473,-8.0477,-8.0481,-8.0483,0,-7.947,-7.9468,-7.9565,-7.9663,-7.9742,-7.9819,-7.9889,-7.9946,-7.9942,-8.0021,-8.0137,-8.0204,-8.0335,-8.0442,-8.0536,-8.0569,-8.0526,-8.0522,-8.0556,-8.0565,-8.0561,-8.0564,-8.0147,-8.0513,-8.051,-8.0508,-8.0506,-8.0505,-7.9705,-7.9801,-7.9865,-7.9974,-8.0026,-8.0092,-8.0184,-8.0208,-8.0304,-8.0411,-8.0398,-8.0526,-8.0587,-8.0709,-8.075,-8.0849,-8.08,-8.0849,-8.0862,-8.0874,-8.0887,-8.0545,-8.0865,-8.0865,-8.0864,-8.0863,-8.0862,0,-8.0027,-8.0065,-8.0165,-8.0266,-8.0351,-8.0303,-8.0378,-8.0452,-8.0566,-8.0627,-8.0713,-8.0844,-8.0948,-8.0979,-8.1079,-8.1152,-8.1134,-8.1178,-8.1173,-8.1181,-8.0925,-8.0886,-8.1191,-8.1191,-8.1191,-8.1191,-8.119,-8.119,-8.0205,-8.0366,-8.0372,-8.0557,-8.0593,-8.0719,-8.0766,-8.0826,-8.0875,-8.1025,-8.1111,-8.1131,-8.118,-8.1283,-8.1375,-8.1381,-8.142,-8.1473,-8.1471,-8.1232,-8.1199,-8.1167,-8.113,-8.1481,-8.1482,-8.1717,-8.172,-8.1721]}]]